[Date Prev][Date Next][Thread Prev][Thread Next] - [Date Index][Thread Index][Author Index]

2 Line ISS Keps 5-16



ISS
1 25544U 98067A   03136.44843257  .00012276  00000-0  15903-3 0   169
2 25544  51.6299 179.7293 0006259 120.1585 328.5602 15.59299077256054


----
Via the sarex mailing list at AMSAT.ORG courtesy of AMSAT-NA.
To unsubscribe, send "unsubscribe sarex" to Majordomo@amsat.org



AMSAT Top AMSAT Home